Regional Weather Roundup
Issued by NWS Midland/Odessa, TX

Skip options and go directly to product.
Home | Oldest Version | Next Version | Current Version | All | Text Only | Save Text | Print | Product List | Glossary On

Skip product version selection by date and time.   
349
ASUS44 KMAF 300910
RWRMAF
MIDLAND AREA WEATHER ROUNDUP
NATIONAL WEATHER SERVICE MIDLAND TX
400 AM CDT THU JUN 30 2016

...IN SOUTHWEST TEXAS AND SOUTHEAST NEW MEXICO...

CITY           SKY/WX    TMP DP  RH WIND       PRES   REMARKS
ALPINE         CLEAR     67  57  70 CALM      30.20F
ANDREWS        FAIR      71  61  71 S6        30.09S
ARTESIA        CLEAR     72  55  56 SW7       30.10S
BIG SPRING     CLEAR     70  57  63 SE9       30.08F
CARLSBAD       CLEAR     71  58  63 S5        30.07S
DRYDEN           N/A     76  65  68 N7        30.00S
FORT STOCKTON  CLEAR     71  60  68 S7        30.06F
GUAD PASS      CLEAR     70  54  56 SE6       30.23F
HOBBS          CLEAR     70  59  68 SW3       30.13S
MARFA          CLOUDY   N/A N/A N/A N3        30.19F
MIDLAND AIRPK  CLEAR     75  62  62 SE7       30.08S
MIDLAND INTL   CLEAR     73  62  68 SE8       30.07F
ODESSA         CLEAR     75  61  61 SE10      30.08F
PECOS          CLEAR     72  60  67 CALM      30.05S
PRESIDIO       FAIR      78  59  51 NE6       30.04S
SEMINOLE       CLEAR     69  60  73 CALM      30.10F
SNYDER           N/A     69  64  85 S6        30.05F
WINK           CLEAR     73  63  70 E6        30.05S
$$
...OTHER STATIONS IN TEXAS...

CITY           SKY/WX    TMP DP  RH WIND       PRES   REMARKS
ABILENE        CLEAR     71  67  87 SE8       30.03F
AMARILLO       MOCLDY    72  61  68 SE9       30.12F
AUSTIN         PTCLDY    74  73  97 CALM      29.96S
BROWNSVILLE    CLEAR     78  76  93 S3        29.92F
CORPUS CHRISTI MOCLDY    77  74  90 SW6       29.92S
DALLAS FTW     CLEAR     78  67  68 SE3       29.97F
DEL RIO        CLEAR     78  66  66 E9        29.94F
EL PASO        CLOUDY    78  55  44 SE6       30.09S
HOUSTON INT    PTCLDY    77  73  87 N5        29.93S
LUBBOCK        PTCLDY    74  62  66 S8        30.08F
SAN ANGELO     CLEAR     69  65  86 CALM      30.03F
SAN ANTONIO    PTCLDY    77  69  76 CALM      29.97S
WACO           CLEAR     72  68  87 CALM      29.98S
WICHITA FALLS  NOT AVBL
$$
...OTHER LOCATIONS IN NEW MEXICO...

CITY           SKY/WX    TMP DP  RH WIND       PRES   REMARKS
ALAMAGORDO     PTCLDY    77  50  38 SE10G17   30.12F
ALBUQUERQUE    PTCLDY    73  46  38 SE8       30.18F
CANNON AFB     CLOUDY    68  56  65 NE8       30.15R
CLOVIS         PTCLDY    73  55  53 NE6       30.16R
HOLLOMAN AFB   PTCLDY    78  52  39 SE14      30.10S
ROSWELL        CLEAR     72  51  47 SW7       30.09F
RUIDOSO          N/A     64  48  55 CALM      30.33F
SANTA FE       CLOUDY    66  46  48 N10       30.27S
TRUTH OR CONSE MOCLDY    78  49  35 SW5       30.14F
TUCUMCARI      CLOUDY    70  54  56 W8        30.12S
$$

USA.gov is the U.S. government's official web portal to all federal, state and local government web resources and services.